When you browse on this site, cookies collect data to enhance your experience and personalize the content and advertising you see.
Visit our Privacy Policy to learn more. By continuing to use the site, you agree to this use of cookies and data.
  • în România
  • Lista ţărilor
  • Pe 7 zile
  • Temperatura apei
  • Meteo pe hartă
  • Widget-uri
  • user-avatar
    Intrare

    Meteo pe oră la Ahmedabad

    Astăzi, 6 Aprilie, Luni

    Timp Temperatura Precipitaţii Vânt Presiune Umiditate
    00:00 +33°C° 0 mm 3 m/s 753 mmHg 17%
    01:00 +31°C° 0 mm 2 m/s 753 mmHg 18%
    02:00 +30°C° 0 mm 2 m/s 752 mmHg 19%
    03:00 +30°C° 0 mm 2 m/s 752 mmHg 20%
    04:00 +29°C° 0 mm 2 m/s 752 mmHg 21%
    05:00 +29°C° 0 mm 1 m/s 753 mmHg 21%
    06:00 +30°C° 0 mm 1 m/s 753 mmHg 20%
    07:00 +32°C° 0 mm 1 m/s 754 mmHg 18%
    08:00 +33°C° 0 mm 1 m/s 755 mmHg 17%
    09:00 +35°C° 0 mm 1 m/s 755 mmHg 15%
    10:00 +38°C° 0 mm 2 m/s 755 mmHg 13%
    11:00 +40°C° 0 mm 2 m/s 755 mmHg 13%
    12:00 +41°C° 0 mm 2 m/s 754 mmHg 12%
    13:00 +42°C° 0 mm 2 m/s 753 mmHg 10%
    14:00 +43°C° 0 mm 2 m/s 752 mmHg 9%
    15:00 +44°C° 0 mm 3 m/s 752 mmHg 9%
    16:00 +44°C° 0 mm 4 m/s 751 mmHg 9%
    17:00 +43°C° 0 mm 4 m/s 751 mmHg 9%
    18:00 +41°C° 0 mm 4 m/s 751 mmHg 11%
    19:00 +38°C° 0 mm 4 m/s 751 mmHg 13%
    20:00 +36°C° 0 mm 3 m/s 752 mmHg 14%
    21:00 +36°C° 0 mm 3 m/s 752 mmHg 16%
    22:00 +35°C° 0 mm 3 m/s 752 mmHg 17%
    23:00 +34°C° 0 mm 3 m/s 753 mmHg 19%

    Mâine, 7 Aprilie, Marţi

    Timp Temperatura Precipitaţii Vânt Presiune Umiditate
    00:00 +33°C° 0 mm 3 m/s 752 mmHg 20%
    01:00 +31°C° 0 mm 2 m/s 752 mmHg 22%
    02:00 +31°C° 0 mm 2 m/s 752 mmHg 23%
    03:00 +30°C° 0 mm 2 m/s 751 mmHg 27%
    04:00 +29°C° 0 mm 2 m/s 751 mmHg 30%
    05:00 +28°C° 0 mm 2 m/s 751 mmHg 34%
    06:00 +29°C° 0 mm 2 m/s 752 mmHg 35%
    07:00 +30°C° 0 mm 2 m/s 752 mmHg 37%
    08:00 +31°C° 0 mm 2 m/s 753 mmHg 39%
    09:00 +35°C° 0 mm 2 m/s 753 mmHg 32%
    10:00 +37°C° 0 mm 3 m/s 753 mmHg 25%
    11:00 +39°C° 0 mm 3 m/s 752 mmHg 18%
    12:00 +40°C° 0 mm 3 m/s 752 mmHg 16%
    13:00 +42°C° 0 mm 3 m/s 751 mmHg 14%
    14:00 +44°C° 0 mm 4 m/s 750 mmHg 12%
    15:00 +43°C° 0 mm 4 m/s 750 mmHg 12%
    16:00 +43°C° 0 mm 4 m/s 749 mmHg 11%
    17:00 +43°C° 0 mm 4 m/s 749 mmHg 10%
    18:00 +40°C° 0 mm 4 m/s 749 mmHg 14%
    19:00 +37°C° 0 mm 4 m/s 750 mmHg 18%
    20:00 +34°C° 0 mm 4 m/s 751 mmHg 21%
    21:00 +33°C° 0 mm 4 m/s 751 mmHg 24%
    22:00 +33°C° 0 mm 3 m/s 751 mmHg 27%
    23:00 +31°C° 0 mm 3 m/s 752 mmHg 30%

    Poimâine, 8 Aprilie, Miercuri

    Timp Temperatura Precipitaţii Vânt Presiune Umiditate
    00:00 +30°C° 0 mm 3 m/s 751 mmHg 36%
    01:00 +29°C° 0 mm 4 m/s 751 mmHg 42%
    02:00 +29°C° 0 mm 4 m/s 751 mmHg 48%
    03:00 +28°C° 0 mm 3 m/s 751 mmHg 52%
    04:00 +27°C° 0 mm 3 m/s 751 mmHg 56%
    05:00 +27°C° 0 mm 2 m/s 752 mmHg 60%
    06:00 +28°C° 0 mm 2 m/s 752 mmHg 57%
    07:00 +29°C° 0 mm 2 m/s 753 mmHg 54%
    08:00 +30°C° 0 mm 2 m/s 753 mmHg 50%
    09:00 +32°C° 0 mm 2 m/s 753 mmHg 42%
    10:00 +35°C° 0 mm 3 m/s 753 mmHg 33%
    11:00 +38°C° 0 mm 3 m/s 753 mmHg 25%
    12:00 +39°C° 0 mm 3 m/s 752 mmHg 20%
    13:00 +42°C° 0 mm 3 m/s 751 mmHg 16%
    14:00 +43°C° 0 mm 4 m/s 751 mmHg 12%
    15:00 +43°C° 0 mm 4 m/s 750 mmHg 11%
    16:00 +43°C° 0 mm 5 m/s 750 mmHg 11%
    17:00 +42°C° 0 mm 6 m/s 749 mmHg 10%
    18:00 +40°C° 0 mm 5 m/s 750 mmHg 14%
    19:00 +37°C° 0 mm 4 m/s 751 mmHg 19%
    20:00 +35°C° 0 mm 4 m/s 751 mmHg 23%
    21:00 +34°C° 0 mm 4 m/s 752 mmHg 29%
    22:00 +33°C° 0 mm 4 m/s 752 mmHg 35%
    23:00 +32°C° 0 mm 4 m/s 752 mmHg 41%

    9 Aprilie, Joi

    Timp Temperatura Precipitaţii Vânt Presiune Umiditate
    00:00 +30°C° 0 mm 4 m/s 752 mmHg 40%
    01:00 +29°C° 0 mm 4 m/s 752 mmHg 39%
    02:00 +28°C° 0 mm 4 m/s 752 mmHg 38%
    03:00 +28°C° 0 mm 3 m/s 752 mmHg 45%
    04:00 +27°C° 0 mm 2 m/s 752 mmHg 52%
    05:00 +26°C° 0 mm 2 m/s 752 mmHg 59%
    06:00 +27°C° 0 mm 2 m/s 752 mmHg 55%
    07:00 +29°C° 0 mm 2 m/s 753 mmHg 50%
    08:00 +30°C° 0 mm 3 m/s 753 mmHg 45%
    09:00 +34°C° 0 mm 3 m/s 753 mmHg 37%
    10:00 +36°C° 0 mm 3 m/s 753 mmHg 28%
    11:00 +39°C° 0 mm 3 m/s 753 mmHg 20%
    12:00 +40°C° 0 mm 3 m/s 752 mmHg 17%
    13:00 +43°C° 0 mm 3 m/s 751 mmHg 13%
    14:00 +44°C° 0 mm 3 m/s 751 mmHg 9%
    15:00 +44°C° 0 mm 4 m/s 750 mmHg 9%
    16:00 +45°C° 0 mm 5 m/s 750 mmHg 9%
    17:00 +45°C° 0 mm 6 m/s 750 mmHg 9%
    18:00 +41°C° 0 mm 6 m/s 750 mmHg 10%
    19:00 +39°C° 0 mm 5 m/s 751 mmHg 11%
    20:00 +36°C° 0 mm 4 m/s 751 mmHg 13%
    21:00 +35°C° 0 mm 4 m/s 752 mmHg 15%
    22:00 +34°C° 0 mm 4 m/s 752 mmHg 17%
    23:00 +33°C° 0 mm 3 m/s 752 mmHg 19%

    10 Aprilie, Vineri

    Timp Temperatura Precipitaţii Vânt Presiune Umiditate
    00:00 +31°C° 0 mm 3 m/s 752 mmHg 23%
    01:00 +30°C° 0 mm 3 m/s 752 mmHg 27%
    02:00 +29°C° 0 mm 3 m/s 751 mmHg 31%
    03:00 +29°C° 0 mm 3 m/s 752 mmHg 34%
    04:00 +28°C° 0 mm 3 m/s 752 mmHg 36%
    05:00 +27°C° 0 mm 3 m/s 752 mmHg 39%
    06:00 +29°C° 0 mm 3 m/s 753 mmHg 41%
    07:00 +30°C° 0 mm 3 m/s 753 mmHg 43%
    08:00 +31°C° 0 mm 3 m/s 753 mmHg 45%
    09:00 +35°C° 0 mm 3 m/s 753 mmHg 34%
    10:00 +38°C° 0 mm 3 m/s 753 mmHg 24%
    11:00 +42°C° 0 mm 3 m/s 753 mmHg 13%
    12:00 +43°C° 0 mm 3 m/s 752 mmHg 12%
    13:00 +44°C° 0 mm 3 m/s 752 mmHg 10%
    14:00 +45°C° 0 mm 3 m/s 751 mmHg 8%
    15:00 +45°C° 0 mm 3 m/s 750 mmHg 9%
    16:00 +45°C° 0 mm 4 m/s 750 mmHg 9%
    17:00 +45°C° 0 mm 5 m/s 750 mmHg 9%
    18:00 +42°C° 0 mm 5 m/s 750 mmHg 10%
    19:00 +40°C° 0 mm 4 m/s 751 mmHg 12%
    20:00 +37°C° 0 mm 4 m/s 751 mmHg 13%
    21:00 +36°C° 0 mm 4 m/s 752 mmHg 14%
    22:00 +36°C° 0 mm 3 m/s 752 mmHg 15%
    23:00 +35°C° 0 mm 3 m/s 753 mmHg 16%

    11 Aprilie, Sâmbătă

    Timp Temperatura Precipitaţii Vânt Presiune Umiditate
    00:00 +34°C° 0 mm 4 m/s 752 mmHg 18%
    01:00 +33°C° 0 mm 4 m/s 752 mmHg 21%
    02:00 +32°C° 0 mm 4 m/s 752 mmHg 23%
    03:00 +30°C° 0 mm 4 m/s 752 mmHg 27%
    04:00 +30°C° 0 mm 3 m/s 752 mmHg 31%
    05:00 +29°C° 0 mm 3 m/s 752 mmHg 36%
    06:00 +30°C° 0 mm 3 m/s 753 mmHg 31%
    07:00 +32°C° 0 mm 2 m/s 753 mmHg 26%
    08:00 +34°C° 0 mm 2 m/s 754 mmHg 21%
    09:00 +37°C° 0 mm 2 m/s 754 mmHg 17%
    10:00 +40°C° 0 mm 3 m/s 754 mmHg 13%
    11:00 +43°C° 0 mm 3 m/s 754 mmHg 9%
    12:00 +44°C° 0 mm 3 m/s 753 mmHg 8%
    13:00 +46°C° 0 mm 3 m/s 752 mmHg 7%
    14:00 +47°C° 0 mm 3 m/s 751 mmHg 6%
    15:00 +46°C° 0 mm 3 m/s 751 mmHg 6%
    16:00 +47°C° 0 mm 4 m/s 750 mmHg 6%
    17:00 +47°C° 0 mm 4 m/s 750 mmHg 6%
    18:00 +44°C° 0 mm 4 m/s 750 mmHg 7%
    19:00 +41°C° 0 mm 4 m/s 751 mmHg 9%
    20:00 +38°C° 0 mm 4 m/s 751 mmHg 11%
    21:00 +37°C° 0 mm 4 m/s 752 mmHg 12%
    22:00 +36°C° 0 mm 4 m/s 752 mmHg 13%
    23:00 +35°C° 0 mm 4 m/s 752 mmHg 13%
    Arată mai mult